Le nostre stazioni meteo in Italia

Pubblicità
Il mio iltempo24.it
Gela, Italia (16453): Temperatura & dewpoint: 13.04.2019 17:00:00 - 19.04.2019 17:00:00 (CEST)Gela, Italia (16453): velocità del vento: 13.04.2019 17:00:00 - 19.04.2019 17:00:00 (CEST)Gela, Italia (16453): direzione del vento: 13.04.2019 17:00:00 - 19.04.2019 17:00:00 (CEST)Gela, Italia (16453): reduced air pressure: 13.04.2019 17:00:00 - 19.04.2019 17:00:00 (CEST)Gela, Italia (16453): visibility: 13.04.2019 17:00:00 - 19.04.2019 17:00:00 (CEST)Gela, Italia (16453): ore di luce: 13.04.2019 17:00:00 - 19.04.2019 17:00:00 (CEST)
Data & Tempo tt [°C] td [°C] ff [km/h] ff [kn] dd ppp [hPa] vv [km] sd [min]
19.04.2019 17:00:00 17,0 9,4 18 10 SSO 1023,4 12 36
19.04.2019 16:00:00 17,0 9,0 22 12 S - 10 -
19.04.2019 15:00:00 17,0 8,0 16 9 S - 10 -
19.04.2019 14:00:00 17,4 8,0 13 7 SSO 1024,4 10 60
19.04.2019 13:00:00 17,0 7,0 16 9 SSO - 10 -
19.04.2019 12:00:00 18,0 9,0 21 11 ENE - 10 -
19.04.2019 11:00:00 17,4 8,8 24 13 ENE 1024,4 20 60
19.04.2019 10:00:00 17,0 8,0 24 13 ENE - 10 -
19.04.2019 09:00:00 15,0 9,0 16 9 NE - 10 -
19.04.2019 08:00:00 14,4 10,4 18 10 ENE 1023,1 18 36
19.04.2019 07:00:00 - - - - - - - -
19.04.2019 06:00:00 - - - - - - - -
19.04.2019 05:00:00 - - - - - - - -
19.04.2019 04:00:00 - - - - - - - -
19.04.2019 03:00:00 - - - - - - - -
19.04.2019 02:00:00 - - - - - - - -
19.04.2019 01:00:00 - - - - - - - -
19.04.2019 00:00:00 - - - - - - - -
18.04.2019 23:00:00 - - - - - - - -
18.04.2019 22:00:00 - - - - - - - -
18.04.2019 21:00:00 - - - - - - - -
18.04.2019 20:00:00 16,0 11,0 5 3 S 1020,4 13 12
18.04.2019 19:00:00 16,0 10,0 4 2 S - 10 -
18.04.2019 18:00:00 16,0 10,0 8 4 SSO - 10 -
18.04.2019 17:00:00 16,6 10,0 13 7 SSO 1020,3 15 60
18.04.2019 16:00:00 17,0 10,0 11 6 SSO - 10 -
18.04.2019 15:00:00 17,0 10,0 15 8 SSO - 10 -
18.04.2019 14:00:00 17,2 9,1 15 8 SSO 1020,4 15 60
18.04.2019 13:00:00 17,0 8,0 11 6 SSO - 10 -
18.04.2019 12:00:00 17,0 9,0 8 4 SSO - 10 -
18.04.2019 11:00:00 16,8 8,2 8 4 SSO 1020,7 15 60
18.04.2019 10:00:00 16,0 10,0 8 4 S - 10 -
18.04.2019 09:00:00 15,0 9,0 8 4 ENE - 10 -
18.04.2019 08:00:00 13,8 9,2 5 3 NE 1019,8 15 36
18.04.2019 07:00:00 - - - - - - - -
18.04.2019 06:00:00 - - - - - - - -
18.04.2019 05:00:00 - - - - - - - -
18.04.2019 04:00:00 - - - - - - - -
18.04.2019 03:00:00 - - - - - - - -
18.04.2019 02:00:00 - - - - - - - -
18.04.2019 01:00:00 - - - - - - - -
18.04.2019 00:00:00 - - - - - - - -
17.04.2019 23:00:00 - - - - - - - -
17.04.2019 22:00:00 - - - - - - - -
17.04.2019 21:00:00 - - - - - - - -
17.04.2019 20:00:00 15,4 10,2 4 2 OSO 1018,8 15 0
17.04.2019 19:00:00 16,0 10,0 11 6 SO - 10 -
17.04.2019 18:00:00 16,0 10,0 11 6 OSO - 10 -
17.04.2019 17:00:00 16,4 10,3 13 7 O 1018,3 18 60
17.04.2019 16:00:00 17,0 11,0 11 6 OSO - 10 -
17.04.2019 15:00:00 16,0 11,0 11 6 OSO - 10 -
17.04.2019 14:00:00 15,8 10,1 16 9 OSO 1019,0 10 60
17.04.2019 13:00:00 16,0 10,0 13 7 SO - 10 -
17.04.2019 12:00:00 16,0 10,0 9 5 OSO - 10 -
17.04.2019 11:00:00 15,8 9,9 8 4 OSO 1019,5 18 60
17.04.2019 10:00:00 15,0 10,0 9 5 OSO - 10 -
17.04.2019 09:00:00 14,0 10,0 4 2 O - 10 -
17.04.2019 08:00:00 13,0 9,1 9 5 ENE 1008,3 10 0
17.04.2019 07:00:00 - - - - - - - -
17.04.2019 06:00:00 - - - - - - - -
17.04.2019 05:00:00 - - - - - - - -
17.04.2019 04:00:00 - - - - - - - -
17.04.2019 03:00:00 - - - - - - - -
17.04.2019 02:00:00 - - - - - - - -
17.04.2019 01:00:00 - - - - - - - -
17.04.2019 00:00:00 - - - - - - - -
16.04.2019 23:00:00 - - - - - - - -
16.04.2019 22:00:00 - - - - - - - -
16.04.2019 21:00:00 - - - - - - - -
16.04.2019 20:00:00 15,0 9,8 5 3 S 1018,8 12 0
16.04.2019 19:00:00 16,0 9,0 8 4 SO - 10 -
16.04.2019 18:00:00 16,0 9,0 13 7 SSO - 10 -
16.04.2019 17:00:00 16,2 9,4 11 6 SO 1019,1 14 60
16.04.2019 16:00:00 16,0 9,0 9 5 S - 10 -
16.04.2019 15:00:00 16,0 8,0 8 4 SO - 10 -
16.04.2019 14:00:00 15,8 7,1 9 5 SO 1019,9 20 0
16.04.2019 13:00:00 16,0 7,0 8 4 SSO - 10 -
16.04.2019 12:00:00 16,0 7,0 9 5 SSO - 10 -
16.04.2019 11:00:00 15,8 7,0 5 3 SSO 1019,9 20 60
16.04.2019 10:00:00 15,0 7,0 4 2 S - 10 -
16.04.2019 09:00:00 13,0 6,0 5 3 OSO - 10 -
16.04.2019 08:00:00 12,4 7,5 4 2 NE 1018,6 20 36
16.04.2019 07:00:00 - - - - - - - -
16.04.2019 06:00:00 - - - - - - - -
16.04.2019 05:00:00 - - - - - - - -
16.04.2019 04:00:00 - - - - - - - -
16.04.2019 03:00:00 - - - - - - - -
16.04.2019 02:00:00 - - - - - - - -
16.04.2019 01:00:00 - - - - - - - -
16.04.2019 00:00:00 - - - - - - - -
15.04.2019 23:00:00 - - - - - - - -
15.04.2019 22:00:00 - - - - - - - -
15.04.2019 21:00:00 - - - - - - - -
15.04.2019 20:00:00 14,8 3,3 9 5 NNE 1014,5 20 18
15.04.2019 19:00:00 17,0 4,0 15 8 NNE - 10 -
15.04.2019 18:00:00 17,0 4,0 18 10 N - 10 -
15.04.2019 17:00:00 17,0 3,3 24 13 N 1011,2 20 60
15.04.2019 16:00:00 16,0 4,0 15 8 N - 10 -
15.04.2019 15:00:00 16,0 4,0 15 8 N - 10 -
15.04.2019 14:00:00 16,4 4,5 15 8 N 1010,0 20 0
15.04.2019 13:00:00 16,0 5,0 13 7 NNO - 10 -
15.04.2019 12:00:00 16,0 6,0 11 6 NO - 10 -
15.04.2019 11:00:00 15,6 5,5 11 6 NNO 1009,8 20 36
15.04.2019 10:00:00 14,0 5,0 15 8 NO - 10 -
15.04.2019 09:00:00 14,0 6,0 16 9 NO - 10 -
15.04.2019 08:00:00 14,0 7,1 18 10 O 1008,3 20 12
15.04.2019 07:00:00 - - - - - - - -
15.04.2019 06:00:00 - - - - - - - -
15.04.2019 05:00:00 - - - - - - - -
15.04.2019 04:00:00 - - - - - - - -
15.04.2019 03:00:00 - - - - - - - -
15.04.2019 02:00:00 - - - - - - - -
15.04.2019 01:00:00 - - - - - - - -
15.04.2019 00:00:00 - - - - - - - -
14.04.2019 23:00:00 - - - - - - - -
14.04.2019 22:00:00 - - - - - - - -
14.04.2019 21:00:00 - - - - - - - -
14.04.2019 20:00:00 14,8 8,5 21 11 O 1012,7 12 0
14.04.2019 19:00:00 15,0 8,0 26 14 O - 10 -
14.04.2019 18:00:00 15,0 7,0 34 18 O - 10 -
14.04.2019 17:00:00 15,0 6,8 34 18 O 1012,2 12 60
14.04.2019 16:00:00 15,0 8,0 35 19 O - 10 -
14.04.2019 15:00:00 15,0 7,0 31 17 O - 10 -
14.04.2019 14:00:00 15,4 8,2 28 15 O 1012,5 14 60
14.04.2019 13:00:00 16,0 9,0 21 11 O - 10 -
14.04.2019 12:00:00 15,0 9,0 16 9 OSO - 10 -
14.04.2019 11:00:00 14,6 8,8 9 5 SO 1013,7 18 60
14.04.2019 10:00:00 14,0 8,0 5 3 OSO - 10 -
14.04.2019 09:00:00 13,0 8,0 4 2 ENE - 10 -
14.04.2019 08:00:00 12,0 7,7 4 2 NE 1013,1 20 48
14.04.2019 07:00:00 - - - - - - - -
14.04.2019 06:00:00 - - - - - - - -
14.04.2019 05:00:00 - - - - - - - -
14.04.2019 04:00:00 - - - - - - - -
14.04.2019 03:00:00 - - - - - - - -
14.04.2019 02:00:00 - - - - - - - -
14.04.2019 01:00:00 - - - - - - - -
14.04.2019 00:00:00 - - - - - - - -
13.04.2019 23:00:00 - - - - - - - -
13.04.2019 22:00:00 - - - - - - - -
13.04.2019 21:00:00 - - - - - - - -
13.04.2019 20:00:00 13,8 7,1 4 2 NE 1011,7 10 18
13.04.2019 19:00:00 14,0 6,0 4 2 O - 10 -
13.04.2019 18:00:00 14,0 6,0 8 4 N - 10 -
13.04.2019 17:00:00 14,8 8,1 28 15 O 1011,1 20 60

tt = Temperatura
td = dewpoint
ff = velocità del vento
dd = direzione del vento
ppp = reduced air pressure
vv = visibility
sd = ore di luce

Stazioni seguenti

WeatherPro
AMSI
MeteoEarth